Location: Lake Lucerne
(45.5315°N, 88.8489°W)
Time: 22:54:25
(UTC-05:00)

X-37B - Visible Passes

Search period start: 12 May 2021 00:00
Search period end: 22 May 2021 00:00
Orbit: 386 x 389 km, 45.0° (Epoch: 08 May)

Date Brightness Start Highest point End Pass type
(mag) Time Alt. Az. Time Alt. Az. Time Alt. Az.
12 May 2.1 21:46:36 10° W 21:49:15 24° SSW 21:50:11 21° S visible
13 May 1.5 20:48:02 10° W 20:51:00 36° SSW 20:53:58 10° SE visible
14 May 2.9 21:26:58 10° WSW 21:28:54 15° SSW 21:30:45 10° S visible
